NOAA 16 DEB, 41400

Orbit data source: Space-Track

NOAA 16 DEB, 41400 is space debris in SSO originally from a launch on Thu, 21 Sep 2000 UTC launched from the Air Force Western Test Range (AFWTR). Debris objects in space refer to the collection of defunct objects orbiting the Earth. Examples of debris include non-operational satellites, rocket bodies, and fragments generated from explosions, collisions, or faulty payload assembly.

Loading next visibility...
Identifier
41400, 2000-055KD
Orbit
SSO
Country
Flag of USUS
Related business
Manufacturer
Unknown
Mission
Spacecraft
Bus & Motor
Unknown
Mass
Unknown
Launch date (UTC)
2000-09-21 (25 years ago)
Launch vehicle
Unknown
Launch site
Air Force Western Test Range (AFWTR)
Object type
Payload
Rocket body
Debris
Shape & HBR
Unknown shape, 0.1 m
Radar Cross Section
Small (<0.1 m²)

Expand to show TLE details & history
Last TLE update: 1 day ago

TLE from 1 day ago
0 NOAA 16 DEB
1 41400U 00055KD  26033.72380870  .00005181  00000-0  18395-2 0  9991
2 41400  98.7165 130.8900 0015453 283.1548  76.7912 14.34787242513235
Epoch: 2026-02-02T17:22Z
TLE epoch observation values (Epoch: 2026-02-02T17:22:17.071Z)
Latitude
-0.00005°
Longitude
97.40388°
Altitude
776.198 km
Speed
7.467 km/s
True Right ascension
08h 43m 33s
True Declination
0° 00' 00"
Sunlit
Object was in full shadow at epoch
Visualization orbit readout
Latitude
Unknown
Longitude
Unknown
Altitude
Unknown
Speed
Unknown
Apparent Right ascension
Unknown
Apparent Declination
Unknown
Sunlit
N/A
Visualization observer readout
Local Sidereal Time
19:59:30
Azimuth
Unknown
Elevation
Unknown
Doppler factor
Unknown
Orbital elements
Apogee altitude
783.963 km
Perigee altitude
761.862 km
Semi-major axis
7,151.05 km
Eccentricity
0.00155
Inclination
98.7165°
RAAN
130.89°
Arg. of periapsis
283.1548°
True anomaly
76.96367°
Mean anomaly
76.7912°
Eccentric anomaly
76.87743°
Mean motion
3.58912 °/min
Orbital period
100.3 mins
BSTAR
0.0018395
Loading maneuver chart data...
Computing Atmospheric mass density...
Loading historical data...
Loading historical data...
Loading historical data...
Loading historical data...
Loading historical data...
Loading historical data...
Loading historical data...

Documentation

Showing up to 5 results
|